Weather History for FBFT - March, 2013

Change the Weather History Date:

Sunday, March 31, 2013

  Actual Average Record
Temperature  
Mean Temperature 76 °F -  
Max Temperature 86 °F 81 °F 95 °F (1998)
Min Temperature 66 °F 57 °F 55 °F (2006)
Cooling Degree Days 11    
Growing Degree Days 26 (Base 50)    
Moisture  
Dew Point 58 °F    
Average Humidity 54    
Maximum Humidity 68    
Minimum Humidity 35    
Precipitation  
Precipitation 0.00 in - - ()
Sea Level Pressure  
Sea Level Pressure 30.13 in    
Wind  
Wind Speed 10 mph ()    
Max Wind Speed 17 mph    
Max Gust Speed -    
Visibility 6.1 miles    
Events      
Averages and records for this station are not official NWS values.
T = Trace of Precipitation, MM = Missing Value Source: Averaged Metar Reports

Daily Weather History Graph

Daily Weather History Graph

Search for Another Location

Airport or City:

Trip Planner

Search our weather history database for the weather conditions in past years. The results will help you decide how hot, cold, wet, or windy it might be!

Date:

Astronomy

Mar. 31, 2013 Rise Set
Actual Time 6:17 AM CAT 6:10 PM CAT
Civil Twilight 5:54 AM CAT 6:33 PM CAT
Nautical Twilight 5:29 AM CAT 6:58 PM CAT
Astronomical Twilight 5:03 AM CAT 7:24 PM CAT
Moon 9:34 PM CAT (3/31) 10:09 AM CAT (3/31)
Length of Visible Light 12h 38m
Length of Day
11h 53m
Waning Gibbous, 80% of the Moon is Illuminated
Mar 31
Waning Gibbous
Apr 3
Last Quarter
Apr 10
New
Apr 18
First Quarter
Apr 25
Full

Hourly Weather History & Observations

Time (CAT) Temp. Heat Index Dew Point Humidity Pressure Visibility Wind Dir Wind Speed Gust Speed Precip Events Conditions
12:00 AM 73.4 °F - 57.2 °F 57% 30.09 in - East 13.8 mph - N/A   Clear
1:00 AM 71.6 °F - 57.2 °F 60% 30.09 in - East 16.1 mph - N/A   Clear
2:00 AM 72 °F - 58 °F 51%  in 6 mi ENE 11.5 mph - -  
3:00 AM 68.0 °F - 57.2 °F 68% 30.09 in - ENE 9.2 mph - N/A   Clear
4:00 AM 68.0 °F - 57.2 °F 68% 30.09 in - East 8.1 mph - N/A   Clear
5:00 AM 66.2 °F - 55.4 °F 68% 30.12 in - East 4.6 mph - N/A   Clear
6:00 AM 66.2 °F - 55.4 °F 68% 30.12 in - East 8.1 mph - N/A   Clear
7:00 AM 66.2 °F - 55.4 °F 68% 30.15 in - East 6.9 mph - N/A   Clear
8:00 AM 69 °F - 58 °F 58%  in 6 mi East 16.1 mph - -   Scattered Clouds
8:00 AM 69.8 °F - 57.2 °F 64% 30.18 in 6.2 mi East 16.1 mph - N/A   Partly Cloudy
9:00 AM 73.4 °F - 59.0 °F 61% 30.21 in 6.2 mi East 15.0 mph - N/A   Scattered Clouds
10:00 AM 75.2 °F - 60.8 °F 61% 30.21 in 6.2 mi East 15.0 mph - N/A   Scattered Clouds
11:00 AM 78.8 °F - 60.8 °F 54% 30.21 in 6.2 mi East 17.3 mph - N/A   Scattered Clouds
12:00 PM 82.4 °F 82.9 °F 60.8 °F 48% 30.18 in 6.2 mi East 13.8 mph - N/A   Mostly Cloudy
1:00 PM 84.2 °F 84.4 °F 60.8 °F 45% 30.12 in 6.2 mi East 9.2 mph - N/A   Mostly Cloudy
2:00 PM 84 °F - 60 °F 35%  in 6 mi ESE 9.2 mph - -   Partly Cloudy
2:00 PM 84.2 °F 84.4 °F 60.8 °F 45% 30.12 in 6.2 mi ESE 9.2 mph - N/A   Mostly Cloudy
3:00 PM 86.0 °F 85.4 °F 59.0 °F 40% 30.09 in 6.2 mi ESE 11.5 mph - N/A   Mostly Cloudy
4:00 PM 86.0 °F 85.4 °F 59.0 °F 40% 30.06 in 6.2 mi ESE 12.7 mph - N/A   Mostly Cloudy
5:00 PM 84.2 °F 83.5 °F 57.2 °F 40% 30.06 in 6.2 mi ESE 11.5 mph - N/A   Scattered Clouds
6:00 PM 82.4 °F 82.0 °F 57.2 °F 42% 30.09 in 6.2 mi East 13.8 mph - N/A   Partly Cloudy
7:00 PM 78.8 °F - 59.0 °F 51% 30.09 in - ESE 8.1 mph - N/A   Clear
8:00 PM 77 °F - 57 °F 39%  in 6 mi ESE 11.5 mph - -   Partly Cloudy
9:00 PM 77.0 °F - 57.2 °F 50% 30.15 in - ESE 10.4 mph - N/A   Clear
10:00 PM 75.2 °F - 59.0 °F 57% 30.15 in - East 8.1 mph - N/A   Clear